カタログに戻る

STARLINK-36941

運用中通信VLEO
NORAD 67991·PAYLOAD·🇺🇸 United States

打ち上げ Feb 27, 2026 から Vandenberg Space Force Base

Loading…

次のパス (今後24時間)

TLE

最新Source: CelesTrak SupGP

元期: Sep 15, 2026, 03:36 UTC

1 67991C 26039F   26258.15048611 -.00024162  00000+0 -87524-3 0  2584
2 67991  43.0018  59.1288 0001608 273.4989 217.1245 15.27586746    14

AllMySatでSTARLINK-36941をリアルタイム追跡

Download on the App Store